Monticello, KY

11:57 PM EDT on May 22, 2017 (GMT -0400)
Wayne County

Weather History for KEKQ - June, 2013

Change the Weather History Date:

Saturday, June 22, 2013

  Actual Average Record
Temperature  
Mean Temperature 75 °F -  
Max Temperature 88 °F 83 °F 96 °F (1964)
Min Temperature 62 °F 62 °F 43 °F (1992)
Cooling Degree Days 10    
Growing Degree Days 25 (Base 50)    
Moisture  
Dew Point 67 °F    
Average Humidity 88    
Maximum Humidity 100    
Minimum Humidity 48    
Precipitation  
Precipitation 0.41 in - - ()
Sea Level Pressure  
Sea Level Pressure 30.19 in    
Wind  
Wind Speed 3 mph (SSE)    
Max Wind Speed 24 mph    
Max Gust Speed 34 mph    
Visibility 5 miles    
Events Fog , Rain , Thunderstorm    
Averages and records for this station are not official NWS values.
T = Trace of Precipitation, MM = Missing Value Source: NWS Daily Summary

Daily Weather History Graph

Daily Weather History Graph

Search for Another Location

Airport or City:

Trip Planner

Search our weather history database for the weather conditions in past years. The results will help you decide how hot, cold, wet, or windy it might be!

Date:

Astronomy

Jun. 22, 2013 Rise Set
Actual Time 5:20 AM CDT 8:02 PM CDT
Civil Twilight 4:50 AM CDT 8:32 PM CDT
Nautical Twilight 4:11 AM CDT 9:11 PM CDT
Astronomical Twilight 3:28 AM CDT 9:54 PM CDT
Moon 7:17 PM CDT (6/22) 4:31 AM CDT (6/22)
Length of Visible Light 15h 42m
Length of Day
14h 41m
Waxing Gibbous, 99% of the Moon is Illuminated
Jun 22
Waxing Gibbous
Jun 23
Full
Jun 29
Last Quarter
Jul 8
New
Jul 15
First Quarter

Hourly Weather History & Observations

Time (CDT) Temp. Heat Index Dew Point Humidity Pressure Visibility Wind Dir Wind Speed Gust Speed Precip Events Conditions
12:56 AM 68.0 °F - 68.0 °F 100% 30.17 in 4.0 mi SSE 6.9 mph - N/A   Clear
1:56 AM 66.9 °F - 66.9 °F 100% 30.18 in 5.0 mi Calm Calm - N/A   Clear
2:56 AM 64.9 °F - 64.9 °F 100% 30.18 in 4.0 mi Calm Calm - N/A   Clear
3:56 AM 66.9 °F - 66.9 °F 100% 30.19 in 5.0 mi WSW 3.5 mph - N/A   Clear
4:56 AM 63.0 °F - 63.0 °F 100% 30.19 in 3.0 mi Calm Calm - N/A   Clear
5:13 AM 62.6 °F - 62.6 °F 100% 30.20 in 2.5 mi Calm Calm - N/A   Clear
5:20 AM 62.6 °F - 62.6 °F 100% 30.20 in 1.2 mi Calm Calm - N/A   Clear
5:22 AM 62.6 °F - 62.6 °F 100% 30.20 in 0.5 mi Calm Calm - N/A Fog Fog
5:30 AM 62.6 °F - 62.6 °F 100% 30.20 in 0.2 mi Calm Calm - N/A Fog Fog
5:47 AM 64.4 °F - 64.4 °F 100% 30.21 in 0.8 mi Calm Calm - N/A   Clear
5:56 AM 63.9 °F - 63.9 °F 100% 30.21 in 1.2 mi Calm Calm - N/A   Clear
6:01 AM 64.4 °F - 64.4 °F 100% 30.22 in 2.0 mi Calm Calm - N/A   Clear
6:26 AM 64.4 °F - 64.4 °F 100% 30.23 in 3.0 mi Calm Calm - N/A   Clear
6:56 AM 68.0 °F - 68.0 °F 100% 30.24 in 4.0 mi Calm Calm - N/A   Clear
7:56 AM 72.9 °F - 70.9 °F 93% 30.25 in 10.0 mi Calm Calm - N/A   Clear
8:56 AM 77.9 °F - 70.9 °F 79% 30.26 in 10.0 mi Variable 5.8 mph - N/A   Clear
9:56 AM 81.0 °F 84.4 °F 70.0 °F 69% 30.26 in 10.0 mi SSW 8.1 mph - N/A   Clear
10:56 AM 81.0 °F 84.1 °F 68.9 °F 67% 30.26 in 10.0 mi WSW 5.8 mph - N/A   Partly Cloudy
11:56 AM 82.9 °F 85.4 °F 66.9 °F 58% 30.24 in 10.0 mi WSW 5.8 mph - N/A   Partly Cloudy
12:56 PM 86.9 °F 88.6 °F 64.9 °F 48% 30.22 in 10.0 mi Calm Calm - N/A   Partly Cloudy
1:56 PM 86.9 °F 88.9 °F 65.8 °F 49% 30.20 in 10.0 mi SE 4.6 mph - N/A   Partly Cloudy
2:56 PM 88.0 °F 90.3 °F 65.8 °F 48% 30.17 in 10.0 mi Variable 3.5 mph - N/A   Scattered Clouds
3:56 PM 88.0 °F 92.9 °F 70.0 °F 55% 30.15 in 10.0 mi North 6.9 mph - N/A   Scattered Clouds
4:56 PM 84.9 °F 87.6 °F 66.9 °F 55% 30.13 in 10.0 mi Calm Calm - N/A   Clear
5:56 PM 84.9 °F 88.2 °F 68.0 °F 57% 30.12 in 10.0 mi Variable 3.5 mph - N/A   Clear
6:17 PM 84.2 °F 88.4 °F 69.8 °F 62% 30.12 in 10.0 mi Calm Calm - N/A Thunderstorm Clear
6:56 PM 72.0 °F - 65.8 °F 81% 30.18 in 4.0 mi South 24.2 mph 34.5 mph 0.01 in Rain , Thunderstorm Light Thunderstorms and Rain
6:58 PM 69.8 °F - 66.2 °F 88% 30.18 in 1.2 mi SSE 17.3 mph 34.5 mph 0.03 in Rain , Thunderstorm Light Thunderstorms and Rain
7:00 PM 69.8 °F - 66.2 °F 88% 30.18 in 0.8 mi SSE 15.0 mph 33.4 mph 0.09 in Rain , Thunderstorm Heavy Thunderstorms and Rain
7:05 PM 69.8 °F - 66.2 °F 88% 30.18 in 0.5 mi SE 13.8 mph - 0.16 in Fog , Rain , Thunderstorm Heavy Thunderstorms and Rain
7:20 PM 69.8 °F - 69.8 °F 100% 30.17 in 0.8 mi NE 4.6 mph - 0.38 in Rain , Thunderstorm Heavy Thunderstorms and Rain
7:27 PM 69.8 °F - 69.8 °F 100% 30.16 in 1.2 mi NE 5.8 mph - 0.39 in Rain , Thunderstorm Heavy Thunderstorms and Rain
7:31 PM 69.8 °F - 69.8 °F 100% 30.16 in 2.0 mi NNE 4.6 mph - 0.40 in Rain , Thunderstorm Light Thunderstorms and Rain
7:33 PM 69.8 °F - 69.8 °F 100% 30.16 in 4.0 mi NNW 3.5 mph - 0.40 in Rain Light Rain
7:41 PM 69.8 °F - 69.8 °F 100% 30.16 in 5.0 mi Calm Calm - 0.40 in Rain Light Rain
7:56 PM 68.9 °F - 68.9 °F 100% 30.16 in 10.0 mi East 3.5 mph - 0.40 in Rain Light Rain
8:56 PM 68.9 °F - 68.9 °F 100% 30.16 in 10.0 mi SW 3.5 mph - 0.00 in   Partly Cloudy
9:56 PM 65.8 °F - 65.8 °F 100% 30.17 in 3.0 mi South 4.6 mph - N/A   Clear
10:56 PM 65.8 °F - 65.8 °F 100% 30.18 in 2.5 mi Calm Calm - N/A   Clear
11:06 PM 66.2 °F - 66.2 °F 100% 30.18 in 1.8 mi Calm Calm - N/A   Clear
11:13 PM 66.2 °F - 66.2 °F 100% 30.18 in 2.5 mi ENE 3.5 mph - N/A   Clear
11:20 PM 66.2 °F - 66.2 °F 100% 30.18 in 6.0 mi Calm Calm - N/A   Clear
11:56 PM 64.9 °F - 64.9 °F 100% 30.17 in 6.0 mi Calm Calm - N/A   Clear